Погода в Старой Сахче

Россия / Ульяновская область     54°25′13″N   49°57′05″E
темп.,
°C
ветер,
м/с
пор.,
м/с
влажн.,
%
обл.,
%
осадки,
мм/ч
давл.,
гПа
погр.,
м
22 января, сб
сб2201:00−14ююв41296100 0.1 1021281
04:00−13юв41395100 0.1 1020358
07:00−11юв51493100 0.0 1020427
10:00−9юв51395100 0.4 1021421
13:00−7юв51495100 1.3 1021549
16:00−6ююв51395100 2.3 1021618
19:00−6ююв51495100 0.8 1023554
22:00−6ююв51495100 2.3 1023611
23 января, вс
вс2301:00−6ююв51493100 1.6 1025632
04:00−7ююв51495100 2.6 1026560
07:00−7ююв41193100 0.7 1027414
10:00−8ююв41192100 0.7 1029402
13:00−7ююв3891100 0.0 1031341
16:00−7юв3894100 0.1 1032314
19:00−8юв3891100 0.1 1034265
22:00−9ююв2692100 0.1 1035199
24 января, пн
пн2401:00−11вюв1196100 0.0 103631
04:00−12в1196100 0.0 103710
07:00−14вюв1196100 0.0 103810
10:00−13юв1291100 0.0 103951
13:00−8в1184100 0.0 1039150
16:00−9в1195100 0.0 103911
19:00−14юв1196100 0.0 10409
22:00−16всв119898 0.0 10399
25 января, вт
вт2501:00−19в119940 0.0 10399
04:00−20всв1110057 0.0 10389
07:00−21юв1110054 0.0 10379
10:00−17ююв11975 0.0 103632
13:00−10ю24835 0.0 1034190
16:00−11ю24905 0.0 1033117
19:00−19ююв219819 0.0 103313
22:00−20ю119935 0.0 103210
26 января, ср
ср2601:00−21ююв119947 0.0 103225
04:00−21ююв22985 0.0 103129
07:00−22ююв219985 0.0 103027
10:00−18ююв269784 0.0 1029105
13:00−12ю359286 0.0 1028234
16:00−12ююв3695100 0.0 1028201
19:00−16юв269792 0.0 102896
22:00−13ююв3994100 0.0 1027223